[[[{"header":{"parameterUnit":"kt","parameterCategory":2,"dx":1,"dy":1,"la1":30.253999710083008,"la2":30.299108505249023,"lo1":-89.0895004272461,"lo2":-89.04439544677734,"nx":28,"ny":28,"refTime":"2022-09-19T21:00:00:Z","depth":"0","parameterNumber":2,"parameterNumberName":"U-component_of_CURRENTS"},"data":[0.257,0.2598,0.2657,0.2734,0.282,0.2896,0.297,0.313,0.3401,0.3908,0.4423,0.4837,0.6015,0.7497,0.831,0.8236,0.7715,0.7585,0.725,0.7678,0.7575,0.7477,0.7507,0.843,0.8429,0.6929,0.6918,0.691,0.2631,0.2688,0.2771,0.2893,0.2974,0.3071,0.3237,0.3292,0.3476,0.3883,0.4165,0.5145,0.6043,0.6737,0.7653,0.7753,0.7297,0.7671,0.6967,0.6837,0.7186,0.7239,0.8121,0.8121,0.8121,0.8121,0.812,0.812,0.2741,0.278,0.2859,0.2955,0.3063,0.3183,0.3235,0.3386,0.3572,0.3815,0.4108,0.4515,0.5454,0.6183,0.6328,0.6907,0.6188,0.6818,0.6547,0.5949,0.5892,0.6155,0.6802,0.6798,0.6794,0.6791,0.6788,0,0.2788,0.2857,0.2897,0.301,0.3091,0.3176,0.3269,0.3378,0.3518,0.3708,0.3991,0.4228,0.4863,0.5364,0.5791,0.5847,0.5421,0.5693,0.5815,0.5806,0.5285,0.5194,0.5145,0.5726,0.5716,0.5708,0.5703,0.5698,0.2801,0.285,0.2955,0.2999,0.301,0.3082,0.3144,0.3243,0.3348,0.3598,0.3707,0.4053,0.431,0.4763,0.4967,0.5199,0.4811,0.5446,0.5164,0.5366,0.5142,0.4561,0.4472,0.5587,0.5601,0.5613,0.5622,0,0.2788,0.2814,0.2882,0.2926,0.2942,0.3002,0.3078,0.317,0.3275,0.3448,0.3507,0.3678,0.3969,0.4045,0.4177,0.4164,0.4343,0.44,0.4686,0.475,0.5137,0.492,0.4896,0.4849,0.4802,0.4813,0.4822,0,0.2723,0.2761,0.2772,0.2807,0.2892,0.2873,0.299,0.3033,0.3142,0.3267,0.3281,0.343,0.3426,0.3602,0.3554,0.384,0.3753,0.3794,0.3828,0.4011,0.405,0.4182,0.3971,0.3485,0.3482,0.3479,0.3477,0,0.2617,0.2658,0.272,0.2725,0.2743,0.2781,0.2797,0.2865,0.2931,0.3054,0.3142,0.3226,0.3313,0.3332,0.3376,0.322,0.358,0.3349,0.365,0.3672,0.3898,0.3934,0.453,0.3473,0.3472,0.3471,0.347,0,0.2511,0.2535,0.2617,0.2629,0.264,0.2677,0.2742,0.2778,0.2851,0.288,0.2939,0.2919,0.3023,0.2877,0.304,0.2946,0.2962,0.2962,0.2975,0.3177,0.309,0.3638,0.4101,0.4272,0.3091,0.3087,0.3083,0,0.2388,0.2465,0.2437,0.2507,0.2532,0.2483,0.2536,0.2554,0.2567,0.2636,0.2614,0.2671,0.2558,0.2592,0.2635,0.265,0.2753,0.2579,0.2717,0.2723,0.2965,0.3338,0.362,0.4004,0.303,0.3035,0.3039,0,0.2284,0.2283,0.2295,0.2302,0.229,0.2303,0.2351,0.2373,0.2428,0.241,0.2489,0.2474,0.2455,0.2429,0.2378,0.2432,0.2667,0.2361,0.2358,0.2507,0.2922,0.3225,0.3291,0.2612,0.2617,0.2621,0.2997,0,0.2152,0.2169,0.2204,0.2206,0.2211,0.2243,0.2201,0.2219,0.2184,0.2164,0.2223,0.2163,0.2157,0.2159,0.2088,0.2227,0.2231,0.2127,0.2009,0.2197,0.234,0.2375,0.1896,0.1891,0.1887,0.1884,0,0,0.2031,0.2059,0.2012,0.2045,0.2043,0.197,0.2009,0.1995,0.1953,0.1965,0.1909,0.1903,0.1831,0.1893,0.1945,0.1914,0.1972,0.1859,0.2098,0.2122,0.2145,0.229,0.2328,0.1876,0.1875,0.1873,0.1872,0,0.1973,0.1948,0.1991,0.198,0.1958,0.1915,0.1932,0.1878,0.1856,0.1874,0.1786,0.1799,0.1742,0.1715,0.169,0.1855,0.1791,0.185,0.1985,0.2062,0.2092,0.2117,0.2268,0.2304,0.1862,0.1863,0.1863,0,0.1868,0.1842,0.1852,0.1833,0.1804,0.1818,0.172,0.1732,0.1744,0.1598,0.161,0.1567,0.1488,0.1525,0.1531,0.1466,0.1645,0.153,0.1551,0.1533,0.1603,0.1638,0.167,0.1263,0.1262,0.126,0,0,0.1822,0.184,0.178,0.1811,0.1804,0.1732,0.1724,0.1676,0.1631,0.1611,0.1535,0.1475,0.1454,0.1434,0.1392,0.1428,0.1426,0.1464,0.1492,0.1516,0.1512,0.1587,0.1621,0.1255,0.1255,0.1255,0,0,0.1791,0.1734,0.1697,0.1723,0.1701,0.1623,0.1642,0.1591,0.1558,0.1545,0.1415,0.139,0.1417,0.1341,0.1289,0.135,0.1227,0.1236,0.1406,0.1439,0.1466,0.147,0.1123,0,0,0,0,0,0.1702,0.1747,0.1714,0.1709,0.165,0.1647,0.1637,0.1558,0.1507,0.1531,0.1465,0.1354,0.1297,0.1248,0.1229,0.1294,0.1188,0.12,0.1211,0.1437,0.1474,0.1505,0,0,0,0,0,0,0.1699,0.1693,0.1713,0.1639,0.1625,0.1643,0.1532,0.1511,0.1502,0.1489,0.1374,0.135,0.1252,0.1247,0.1232,0.1298,0.1128,0.1193,0.1203,0.1212,0.145,0.148,0.1506,0,0,0,0,0,0.1697,0.1692,0.1621,0.1637,0.1625,0.1535,0.1529,0.1511,0.1501,0.1373,0.1348,0.1445,0.1256,0.1236,0.1238,0.1309,0.1137,0.1132,0.1199,0.1207,0.1214,0.1464,0,0,0,0,0,0,0.1695,0.1666,0.1616,0.1609,0.1614,0.1532,0.1517,0.1512,0.1382,0.1361,0.1435,0.1426,0.1259,0.1243,0.1228,0.1321,0.1145,0.114,0.1137,0.1205,0.1212,0.1217,0,0,0,0,0,0,0.1669,0.1661,0.1612,0.1587,0.1577,0.153,0.1517,0.1475,0.138,0.145,0.1439,0.1433,0.1268,0.1248,0.1236,0.1175,0.1151,0.1146,0.1142,0.114,0.1211,0.1215,0,0,0,0,0,0,0.1664,0.1657,0.1588,0.158,0.157,0.1483,0.1489,0.1422,0.1394,0.1455,0.1386,0.1383,0.1274,0.1261,0.1242,0.1187,0.1178,0.115,0.1147,0.1145,0.1143,0,0,0,0,0,0,0,0.166,0.1725,0.1662,0.1574,0.1565,0.1546,0.1543,0.1541,0.1393,0.139,0.1387,0.1384,0.1178,0.1173,0.1168,0.1197,0,0,0.1151,0.1149,0,0,0,0,0,0,0,0,0.1726,0.1726,0.1662,0.1661,0.166,0.1545,0.1543,0.1541,0.1393,0.139,0.1388,0.1385,0.1177,0.1173,0.1168,0,0,0,0,0,0,0,0,0,0,0,0,0,0,0,0.1662,0.1661,0,0.1545,0.1543,0.1542,0.1393,0.139,0.1388,0.1386,0.1176,0.1172,0.1169,0,0,0,0,0,0,0,0,0,0,0,0,0,0,0,0,0,0,0,0,0,0,0,0,0,0,0,0,0,0,0,0,0,0,0,0,0,0,0,0,0,0,0,0,0,0,0,0,0,0,0,0,0,0,0,0,0,0,0,0,0,0,0,0,0,0,0,0,0]}],[{"header":{"parameterUnit":"kt","parameterCategory":2,"dx":1,"dy":1,"la1":30.253999710083008,"la2":30.299108505249023,"lo1":-89.0895004272461,"lo2":-89.04439544677734,"nx":28,"ny":28,"refTime":"2022-09-19T21:00:00:Z","depth":"0","parameterNumber":3,"parameterNumberName":"V-component_of_CURRENTS"},"data":[0.0924,0.102,0.1113,0.1364,0.1509,0.1724,0.1868,0.2094,0.234,0.2801,0.3146,0.3403,0.348,0.1587,0.0139,-0.0396,-0.1228,-0.1289,-0.1856,-0.1206,-0.1187,-0.117,-0.1155,-0.136,-0.1361,-0.2654,-0.2664,-0.2672,0.0937,0.103,0.1153,0.1324,0.1486,0.1551,0.1786,0.1924,0.2146,0.2419,0.2572,0.2793,0.2274,0.158,0.07,-0.0148,-0.0728,-0.0614,-0.085,-0.111,-0.0287,-0.0229,-0.0239,-0.0239,-0.0239,-0.0239,-0.0238,-0.0238,0.0963,0.1029,0.111,0.1242,0.1366,0.1547,0.1666,0.1815,0.2001,0.2195,0.2211,0.2339,0.2079,0.1394,0.0738,-0.0069,-0.0191,-0.0276,-0.0412,-0.0598,-0.0844,0.0113,0.0069,0.0067,0.0065,0.0063,0.0062,0,0.0963,0.1001,0.1062,0.1187,0.1274,0.1402,0.1513,0.1628,0.1712,0.1813,0.1935,0.1942,0.1608,0.134,0.0774,0.0407,-0.0297,-0.0057,-0.0418,-0.0364,-0.0511,-0.0839,0.0033,0.0025,0.0022,0.002,0.0019,0.0018,0.093,0.097,0.1062,0.1119,0.1139,0.1225,0.1292,0.1357,0.1458,0.1536,0.1601,0.1497,0.1483,0.1012,0.0553,0.01,-0.0261,-0.01,-0.0168,-0.044,-0.0628,-0.082,-0.1062,-0.0011,-0.0007,-0.0004,-0.0002,0,0.0907,0.0916,0.0991,0.1032,0.1052,0.1114,0.1205,0.1278,0.1298,0.139,0.1389,0.1316,0.1136,0.0812,0.0441,0.0164,-0.0304,-0.0244,0.0007,-0.0028,-0.0464,-0.0585,-0.0949,-0.1245,-0.0433,-0.0432,-0.0432,0,0.0839,0.0887,0.0902,0.0932,0.1016,0.0998,0.1086,0.1092,0.1127,0.1201,0.1063,0.1095,0.0765,0.06,0.031,0.0038,0.0014,-0.0229,-0.0297,-0.0132,-0.0115,-0.0449,-0.0576,-0.0331,-0.033,-0.0329,-0.0328,0,0.0755,0.0804,0.0859,0.0867,0.0885,0.091,0.0924,0.0919,0.0968,0.0938,0.0961,0.0808,0.076,0.0501,0.025,0.0205,-0.0022,-0.0133,-0.0268,-0.0267,-0.019,-0.0179,-0.0454,-0.0327,-0.0326,-0.0326,-0.0326,0,0.0673,0.0699,0.0766,0.0794,0.0802,0.0826,0.0848,0.0865,0.0831,0.0816,0.0757,0.0662,0.0564,0.0451,0.0204,0.0248,0.0066,-0.0069,-0.008,-0.0096,-0.0184,-0.0128,-0.0062,-0.0375,-0.022,-0.0218,-0.0217,0,0.0587,0.0646,0.0621,0.068,0.0704,0.0647,0.0673,0.0652,0.0626,0.0621,0.051,0.0484,0.0375,0.0347,0.0253,0.0095,0.0013,0.0081,-0.02,-0.0206,-0.0175,-0.0133,0.005,-0.0048,-0.02,-0.0202,-0.0203,0,0.0511,0.0504,0.0509,0.0519,0.0487,0.0498,0.0511,0.0504,0.0521,0.0449,0.0459,0.0371,0.0304,0.0261,0.0171,0.0093,0.0036,-0.0001,-0.001,-0.0052,-0.0156,-0.0115,-0.0123,-0.0054,-0.0055,-0.0056,-0.019,0,0.0406,0.0423,0.0442,0.0432,0.0428,0.0441,0.0397,0.0387,0.0338,0.0302,0.0267,0.017,0.0109,0.0082,0.0024,-0.0004,-0.005,-0.0119,-0.018,-0.0132,-0.0196,-0.0206,-0.0128,-0.013,-0.0132,-0.0134,0,0,0.032,0.0347,0.0299,0.0316,0.0311,0.0227,0.0256,0.0229,0.0168,0.0158,0.0111,0.0012,-0.0058,-0.0085,-0.0068,-0.0107,-0.0173,-0.0111,-0.0144,-0.0144,-0.0145,-0.0203,-0.021,-0.0138,-0.0139,-0.0139,-0.014,0,0.028,0.026,0.0289,0.0271,0.0231,0.0198,0.0197,0.0144,0.0113,0.0098,0.0005,-0.0044,-0.0104,-0.0157,-0.0192,-0.0136,-0.0237,-0.0151,-0.0062,-0.0159,-0.0156,-0.0155,-0.0211,-0.0216,-0.0145,-0.0145,-0.0145,0,0.0203,0.0183,0.0192,0.0175,0.0141,0.0148,0.0066,0.0054,0.0056,-0.0067,-0.0084,-0.0152,-0.0231,-0.0243,-0.0259,-0.0288,-0.0304,-0.0284,-0.0274,-0.0261,-0.0365,-0.0361,-0.0357,-0.041,-0.041,-0.041,0,0,0.0168,0.018,0.0138,0.0163,0.0151,0.0084,0.0068,0.0023,-0.003,-0.006,-0.0125,-0.0193,-0.0238,-0.0268,-0.0313,-0.0319,-0.0387,-0.0311,-0.0299,-0.0288,-0.0269,-0.0369,-0.0364,-0.0412,-0.0412,-0.0412,0,0,0.0146,0.0112,0.0076,0.0109,0.0079,0.0022,0.0022,-0.0028,-0.0083,-0.0106,-0.02,-0.0222,-0.0248,-0.03,-0.031,-0.0327,-0.0385,-0.0384,-0.0282,-0.0268,-0.0256,-0.0221,-0.039,0,0,0,0,0,0.0078,0.0122,0.0091,0.0089,0.0053,0.0044,0.0034,-0.0036,-0.0088,-0.0082,-0.016,-0.0217,-0.0323,-0.0333,-0.0348,-0.0321,-0.0431,-0.0427,-0.0424,-0.0296,-0.028,-0.0266,0,0,0,0,0,0,0.0077,0.0077,0.0089,0.0041,0.0031,0.0042,-0.0038,-0.0057,-0.009,-0.0102,-0.02,-0.0219,-0.0281,-0.0331,-0.0343,-0.0316,-0.0386,-0.0429,-0.0427,-0.0424,-0.029,-0.0277,-0.0266,0,0,0,0,0,0.0076,0.0075,0.0042,0.0038,0.003,-0.005,-0.004,-0.0057,-0.0091,-0.0177,-0.0198,-0.0144,-0.0277,-0.0294,-0.0338,-0.0308,-0.0379,-0.0383,-0.0428,-0.0425,-0.0423,-0.0284,0,0,0,0,0,0,0.0075,0.0051,0.0037,0.0031,0.0017,-0.0054,-0.0064,-0.0056,-0.0167,-0.0186,-0.0124,-0.0132,-0.0275,-0.0288,-0.0301,-0.0301,-0.0372,-0.0377,-0.0379,-0.0426,-0.0424,-0.0423,0,0,0,0,0,0,0.0051,0.0047,0.0034,0.0011,0.0001,-0.0056,-0.0066,-0.0099,-0.0169,-0.0109,-0.0119,-0.0127,-0.0268,-0.0284,-0.0294,-0.0343,-0.0368,-0.0372,-0.0374,-0.0376,-0.0424,-0.0423,0,0,0,0,0,0,0.0047,0.0044,0.0012,0.0005,-0.0004,-0.0083,-0.0091,-0.0133,-0.0159,-0.0104,-0.0167,-0.017,-0.0262,-0.0274,-0.0289,-0.0333,-0.0341,-0.0368,-0.0371,-0.0372,-0.0374,0,0,0,0,0,0,0,0.0044,0.0093,0.0078,-0.0001,-0.0009,-0.0028,-0.003,-0.0032,-0.016,-0.0163,-0.0166,-0.0169,-0.0345,-0.0349,-0.0353,-0.0324,0,0,-0.0367,-0.0369,0,0,0,0,0,0,0,0,0.0092,0.0092,0.0078,0.0076,0.0075,-0.0028,-0.003,-0.0031,-0.0161,-0.0163,-0.0165,-0.0167,-0.0346,-0.0349,-0.0353,0,0,0,0,0,0,0,0,0,0,0,0,0,0,0,0.0077,0.0076,0,-0.0028,-0.003,-0.0031,-0.0161,-0.0163,-0.0165,-0.0167,-0.0347,-0.035,-0.0353,0,0,0,0,0,0,0,0,0,0,0,0,0,0,0,0,0,0,0,0,0,0,0,0,0,0,0,0,0,0,0,0,0,0,0,0,0,0,0,0,0,0,0,0,0,0,0,0,0,0,0,0,0,0,0,0,0,0,0,0,0,0,0,0,0,0,0,0,0]}]],[[{"header":{"parameterUnit":"kt","parameterCategory":2,"dx":1,"dy":1,"la1":30.253999710083008,"la2":30.299108505249023,"lo1":-89.0895004272461,"lo2":-89.04439544677734,"nx":28,"ny":28,"refTime":"2022-09-19T21:00:00:Z","depth":"2","parameterNumber":2,"parameterNumberName":"U-component_of_CURRENTS"},"data":[0.1601,0.1627,0.1641,0.1716,0.1812,0.1897,0.1954,0.1924,0.1965,0.1898,0.1863,0.1957,0.2012,0.1643,0.1604,0.1543,0.1803,0.1444,0.2413,0.2214,0.2286,0.2406,0.2147,0,0,0,0,0,0.1596,0.1641,0.1676,0.1767,0.1822,0.1931,0.2034,0.205,0.2162,0.2304,0.248,0.213,0.2108,0.2263,0.2143,0.2227,0.2122,0.2163,0.1946,0.2018,0.2086,0.1878,0.1357,0.1357,0.1357,0.1358,0,0,0.1605,0.1622,0.1701,0.1789,0.1869,0.1954,0.2029,0.218,0.2323,0.2523,0.2717,0.2812,0.2817,0.2904,0.297,0.2984,0.3203,0.2999,0.3019,0.3052,0.2894,0.2746,0.264,0.2647,0.2653,0.2659,0.2663,0,0.1651,0.1686,0.175,0.1838,0.1923,0.2035,0.2196,0.2256,0.2529,0.2678,0.2912,0.3078,0.3365,0.3327,0.3552,0.354,0.3576,0.3474,0.4256,0.3013,0.2856,0.2832,0.2852,0.2804,0.2812,0.2818,0.2823,0.2826,0.1719,0.1739,0.1874,0.1919,0.2003,0.2133,0.2234,0.2463,0.2581,0.2899,0.2967,0.3268,0.3452,0.3798,0.3865,0.4042,0.4226,0.3655,0.3505,0.4079,0.4061,0.4041,0.4021,0.2917,0.2905,0.2896,0.2888,0,0.1755,0.1849,0.1923,0.2093,0.2147,0.2212,0.244,0.2542,0.2747,0.2923,0.299,0.3276,0.3519,0.3744,0.4007,0.4041,0.4192,0.4224,0.3595,0.3525,0.4041,0.4019,0.4234,0.4233,0.4232,0.4231,0.423,0,0.1865,0.192,0.2075,0.2109,0.22,0.2358,0.2487,0.2626,0.2837,0.2967,0.3158,0.3284,0.3535,0.3716,0.3825,0.399,0.4082,0.4033,0.4037,0.3533,0.3479,0.3982,0.3957,0.419,0.4189,0.4188,0.4187,0,0.1909,0.2059,0.2123,0.2175,0.2357,0.2432,0.2539,0.2738,0.2845,0.3051,0.3135,0.3358,0.3475,0.3631,0.3784,0.3742,0.4028,0.3986,0.3984,0.3975,0.3517,0.3459,0.4185,0.4185,0.4185,0.4184,0.4184,0,0.2019,0.2093,0.2179,0.233,0.2365,0.2443,0.2616,0.2723,0.2927,0.3006,0.3167,0.3245,0.3447,0.3424,0.3688,0.3604,0.3689,0.3751,0.3759,0.365,0.3576,0.3175,0.3232,0.3782,0.3778,0.3775,0.3772,0,0.2028,0.2126,0.2217,0.2315,0.2365,0.2482,0.2592,0.2715,0.2815,0.2929,0.3071,0.3185,0.3214,0.3266,0.3393,0.3486,0.36,0.3484,0.3622,0.3625,0.3517,0.3685,0.3123,0.3207,0.3733,0.3737,0.374,0,0.2022,0.2174,0.2185,0.2233,0.2364,0.2409,0.2537,0.2656,0.2727,0.2825,0.2929,0.311,0.3139,0.3204,0.3257,0.336,0.3528,0.3329,0.3333,0.3372,0.3737,0.3639,0.3656,0.3546,0.3551,0.3556,0.3709,0,0.2085,0.2147,0.218,0.2273,0.2337,0.239,0.248,0.2542,0.2577,0.2635,0.2784,0.2876,0.2988,0.3034,0.3058,0.3237,0.3199,0.3189,0.314,0.3261,0.3306,0.3331,0.3006,0.3004,0.3002,0.3001,0,0,0.2044,0.2108,0.2165,0.2223,0.2271,0.2314,0.2363,0.2425,0.2495,0.2545,0.2524,0.2712,0.2768,0.2944,0.2996,0.3011,0.3039,0.2984,0.3188,0.3209,0.3228,0.3279,0.3304,0.2998,0.2997,0.2997,0.2996,0,0.2054,0.2105,0.2145,0.2199,0.2269,0.2308,0.2317,0.2371,0.2406,0.2489,0.2518,0.2613,0.2698,0.2793,0.2847,0.2975,0.2966,0.2982,0.3056,0.317,0.3193,0.3214,0.3267,0.3292,0.2992,0.2992,0.2993,0,0.2038,0.2087,0.2111,0.219,0.223,0.2286,0.227,0.2319,0.2372,0.2371,0.2448,0.2497,0.257,0.2684,0.2729,0.2699,0.2897,0.2818,0.2828,0.2829,0.2944,0.297,0.2993,0.2693,0.2692,0.2691,0,0,0.2041,0.2089,0.2147,0.2191,0.2218,0.2256,0.2283,0.23,0.2347,0.2365,0.2397,0.2452,0.2537,0.2574,0.2636,0.2726,0.2749,0.2783,0.2797,0.2809,0.2816,0.2933,0.2958,0.2688,0.2687,0.2687,0,0,0.2035,0.2105,0.2119,0.217,0.2222,0.2273,0.2304,0.2305,0.2355,0.2354,0.238,0.2394,0.2491,0.2502,0.2454,0.263,0.2571,0.2581,0.263,0.2648,0.2662,0.2657,0.2437,0,0,0,0,0,0.2065,0.2098,0.211,0.2125,0.2205,0.2269,0.2281,0.2307,0.2284,0.2311,0.2351,0.2339,0.2499,0.2457,0.247,0.2542,0.2643,0.2651,0.2658,0.2743,0.2761,0.2777,0,0,0,0,0,0,0.2071,0.2088,0.211,0.216,0.2179,0.2267,0.2251,0.2259,0.2283,0.2283,0.2334,0.2341,0.2368,0.245,0.2462,0.2531,0.2433,0.2646,0.2653,0.2659,0.2749,0.2764,0.2777,0,0,0,0,0,0.2076,0.209,0.221,0.216,0.2177,0.2223,0.2249,0.2256,0.2271,0.2325,0.2332,0.2289,0.2368,0.238,0.2457,0.2526,0.2424,0.2429,0.2651,0.2656,0.2661,0.2756,0,0,0,0,0,0,0.208,0.2095,0.2214,0.222,0.2147,0.2219,0.223,0.2254,0.2311,0.232,0.2282,0.2282,0.2369,0.2378,0.2387,0.2526,0.2418,0.2422,0.2425,0.2655,0.2659,0.2662,0,0,0,0,0,0,0.2088,0.21,0.2217,0.2199,0.2204,0.2215,0.2225,0.2275,0.2312,0.2265,0.2267,0.2281,0.2355,0.2376,0.2383,0.246,0.2413,0.2417,0.242,0.2422,0.2658,0.2661,0,0,0,0,0,0,0.2094,0.2104,0.2197,0.2201,0.2205,0.2277,0.2259,0.2339,0.2299,0.2262,0.2297,0.2295,0.2354,0.2361,0.2381,0.2454,0.2458,0.2413,0.2416,0.2418,0.2419,0,0,0,0,0,0,0,0.2099,0.2021,0.2178,0.2202,0.2206,0.228,0.2281,0.2283,0.2299,0.2298,0.2297,0.2296,0.2388,0.2393,0.2398,0.245,0,0,0.2412,0.2415,0,0,0,0,0,0,0,0,0.2018,0.202,0.2178,0.218,0.2181,0.228,0.2281,0.2283,0.2299,0.2298,0.2297,0.2296,0.239,0.2393,0.2397,0,0,0,0,0,0,0,0,0,0,0,0,0,0,0,0.2178,0.218,0,0.228,0.2281,0.2282,0.2299,0.2298,0.2297,0.2297,0.2391,0.2394,0.2397,0,0,0,0,0,0,0,0,0,0,0,0,0,0,0,0,0,0,0,0,0,0,0,0,0,0,0,0,0,0,0,0,0,0,0,0,0,0,0,0,0,0,0,0,0,0,0,0,0,0,0,0,0,0,0,0,0,0,0,0,0,0,0,0,0,0,0,0,0]}],[{"header":{"parameterUnit":"kt","parameterCategory":2,"dx":1,"dy":1,"la1":30.253999710083008,"la2":30.299108505249023,"lo1":-89.0895004272461,"lo2":-89.04439544677734,"nx":28,"ny":28,"refTime":"2022-09-19T21:00:00:Z","depth":"2","parameterNumber":3,"parameterNumberName":"V-component_of_CURRENTS"},"data":[0.0795,0.0858,0.0879,0.1031,0.1082,0.1217,0.1305,0.1499,0.1558,0.1539,0.1359,0.1323,0.0535,0.0042,-0.0373,-0.0681,-0.0689,-0.0702,-0.0547,-0.0523,-0.0511,-0.0875,-0.0787,0,0,0,0,0,0.0737,0.0763,0.0825,0.0854,0.0927,0.0908,0.1026,0.1137,0.1345,0.1387,0.152,0.0889,0.0573,0.0025,-0.0538,-0.0797,-0.0816,-0.0914,-0.0947,-0.0941,-0.0935,-0.0883,-0.1001,-0.1002,-0.1002,-0.1003,0,0,0.0626,0.0658,0.0652,0.0686,0.0716,0.0794,0.0867,0.0964,0.1075,0.1209,0.1147,0.1085,0.059,0.0055,-0.027,-0.0658,-0.0613,-0.0813,-0.0812,-0.081,-0.0752,-0.0714,-0.0835,-0.0834,-0.0834,-0.0833,-0.0833,0,0.052,0.0484,0.0506,0.0528,0.0551,0.0594,0.0646,0.0685,0.0699,0.0747,0.0846,0.086,0.0539,0.0238,-0.0201,-0.0388,-0.0685,-0.0755,-0.0683,-0.0751,-0.0716,-0.0756,-0.0745,-0.0846,-0.0845,-0.0845,-0.0844,-0.0844,0.0386,0.0401,0.0383,0.0404,0.0418,0.0448,0.048,0.0469,0.0522,0.0528,0.057,0.0442,0.0451,0.0107,-0.0199,-0.0491,-0.0551,-0.074,-0.0715,-0.0602,-0.0645,-0.0636,-0.0627,-0.0837,-0.0838,-0.0839,-0.084,0,0.0318,0.0302,0.0339,0.0346,0.0346,0.0378,0.0403,0.0438,0.0423,0.0455,0.0447,0.0381,0.0241,0.0009,-0.0239,-0.0369,-0.0556,-0.0625,-0.0642,-0.0689,-0.0634,-0.0625,-0.0718,-0.0718,-0.0718,-0.0717,-0.0717,0,0.0246,0.028,0.0278,0.0294,0.0329,0.0328,0.036,0.0359,0.0356,0.0384,0.0304,0.0312,0.0094,-0.0042,-0.0203,-0.0388,-0.0421,-0.0512,-0.0564,-0.0599,-0.0599,-0.0575,-0.0573,-0.0581,-0.058,-0.0579,-0.0578,0,0.0205,0.0234,0.0263,0.0267,0.0279,0.0292,0.0296,0.0282,0.029,0.0258,0.0253,0.0163,0.0104,-0.0038,-0.0216,-0.0213,-0.0419,-0.0451,-0.0534,-0.0534,-0.0633,-0.0639,-0.0576,-0.0576,-0.0576,-0.0575,-0.0575,0,0.0176,0.0191,0.0225,0.0249,0.025,0.0257,0.0254,0.0254,0.0221,0.0201,0.0165,0.0103,0.0037,-0.0014,-0.0187,-0.0147,-0.0268,-0.036,-0.037,-0.037,-0.0434,-0.0602,-0.061,-0.0508,-0.0506,-0.0505,-0.0504,0,0.0141,0.0172,0.0167,0.0193,0.0201,0.0168,0.0173,0.0151,0.0123,0.0104,0.004,0.0005,-0.0044,-0.0069,-0.0118,-0.0237,-0.0291,-0.0225,-0.0449,-0.0456,-0.0421,-0.0401,-0.0449,-0.0587,-0.0488,-0.0489,-0.0491,0,0.0107,0.0116,0.0117,0.0127,0.0102,0.0095,0.0093,0.0073,0.0073,0.0024,0.0018,-0.0045,-0.0082,-0.0118,-0.0176,-0.0221,-0.0272,-0.0282,-0.0288,-0.0343,-0.0425,-0.0386,-0.0394,-0.0317,-0.0318,-0.0319,-0.0478,0,0.0083,0.0088,0.0093,0.0081,0.0071,0.0068,0.0029,0.0015,-0.0019,-0.0048,-0.0083,-0.0154,-0.0205,-0.0225,-0.0265,-0.0287,-0.0331,-0.0366,-0.0402,-0.0372,-0.0448,-0.0457,-0.0371,-0.0373,-0.0374,-0.0375,0,0,0.0047,0.0051,0.0015,0.0022,0.0014,-0.0044,-0.0036,-0.0063,-0.0117,-0.0128,-0.0154,-0.0244,-0.03,-0.0332,-0.0316,-0.0355,-0.0409,-0.0355,-0.0381,-0.0381,-0.0381,-0.0451,-0.0459,-0.0378,-0.0378,-0.0379,-0.0379,0,0.0031,0.0007,0.0016,-0.0001,-0.0031,-0.0061,-0.0064,-0.0111,-0.0131,-0.016,-0.0218,-0.0255,-0.0328,-0.0364,-0.0394,-0.0373,-0.0451,-0.039,-0.0325,-0.0391,-0.0389,-0.0388,-0.0456,-0.0461,-0.0383,-0.0383,-0.0383,0,-0.0002,-0.0022,-0.0027,-0.0058,-0.0084,-0.0092,-0.0138,-0.0155,-0.0161,-0.0244,-0.0268,-0.032,-0.0387,-0.0412,-0.0432,-0.0448,-0.0492,-0.047,-0.0464,-0.0453,-0.0524,-0.0521,-0.0518,-0.0553,-0.0553,-0.0553,0,0,-0.0015,-0.0019,-0.0064,-0.0067,-0.0079,-0.0128,-0.0143,-0.0168,-0.0213,-0.0232,-0.0285,-0.034,-0.0385,-0.0412,-0.0459,-0.0486,-0.0539,-0.0487,-0.0479,-0.0472,-0.0457,-0.0526,-0.0523,-0.0554,-0.0554,-0.0554,0,0,-0.0026,-0.0068,-0.0087,-0.0093,-0.0121,-0.0172,-0.0175,-0.0205,-0.0246,-0.0254,-0.0326,-0.0343,-0.038,-0.0423,-0.0424,-0.0463,-0.0501,-0.0502,-0.0426,-0.0417,-0.041,-0.0378,-0.0477,0,0,0,0,0,-0.0069,-0.0061,-0.0078,-0.0085,-0.0137,-0.0162,-0.017,-0.0208,-0.0231,-0.023,-0.0284,-0.0326,-0.0431,-0.0434,-0.0451,-0.044,-0.0563,-0.0562,-0.056,-0.047,-0.046,-0.0451,0,0,0,0,0,0,-0.0072,-0.0081,-0.0079,-0.0127,-0.0139,-0.0163,-0.0199,-0.0209,-0.0231,-0.0236,-0.0313,-0.0328,-0.0374,-0.0429,-0.0444,-0.0432,-0.0472,-0.0563,-0.0561,-0.056,-0.0467,-0.0458,-0.0451,0,0,0,0,0,-0.0075,-0.0082,-0.0151,-0.0128,-0.0138,-0.0188,-0.0199,-0.0208,-0.0227,-0.0299,-0.0314,-0.0254,-0.0372,-0.0389,-0.0438,-0.0423,-0.0462,-0.0468,-0.0562,-0.0561,-0.056,-0.0463,0,0,0,0,0,0,-0.0077,-0.0093,-0.0155,-0.016,-0.0131,-0.0188,-0.0197,-0.0206,-0.0291,-0.0304,-0.0244,-0.0247,-0.0371,-0.0384,-0.0397,-0.0416,-0.0455,-0.046,-0.0463,-0.0561,-0.056,-0.0559,0,0,0,0,0,0,-0.0089,-0.0096,-0.0157,-0.0158,-0.0164,-0.0187,-0.0195,-0.0247,-0.0293,-0.0232,-0.0236,-0.0245,-0.0366,-0.0381,-0.0391,-0.047,-0.0449,-0.0454,-0.0457,-0.0459,-0.056,-0.056,0,0,0,0,0,0,-0.0093,-0.0099,-0.0157,-0.0161,-0.0166,-0.0226,-0.0236,-0.0295,-0.0265,-0.0228,-0.0266,-0.0267,-0.0363,-0.0374,-0.0387,-0.0461,-0.0468,-0.0449,-0.0452,-0.0455,-0.0456,0,0,0,0,0,0,0,-0.0096,-0.0044,-0.0124,-0.0164,-0.0169,-0.0207,-0.0208,-0.0209,-0.0265,-0.0265,-0.0266,-0.0267,-0.042,-0.0425,-0.0431,-0.0454,0,0,-0.0448,-0.0451,0,0,0,0,0,0,0,0,-0.0042,-0.0043,-0.0125,-0.0126,-0.0127,-0.0207,-0.0208,-0.0209,-0.0265,-0.0265,-0.0266,-0.0266,-0.0421,-0.0426,-0.043,0,0,0,0,0,0,0,0,0,0,0,0,0,0,0,-0.0125,-0.0125,0,-0.0207,-0.0208,-0.0209,-0.0265,-0.0265,-0.0266,-0.0266,-0.0423,-0.0426,-0.043,0,0,0,0,0,0,0,0,0,0,0,0,0,0,0,0,0,0,0,0,0,0,0,0,0,0,0,0,0,0,0,0,0,0,0,0,0,0,0,0,0,0,0,0,0,0,0,0,0,0,0,0,0,0,0,0,0,0,0,0,0,0,0,0,0,0,0,0,0]}]],[[{"header":{"parameterUnit":"kt","parameterCategory":2,"dx":1,"dy":1,"la1":30.253999710083008,"la2":30.299108505249023,"lo1":-89.0895004272461,"lo2":-89.04439544677734,"nx":28,"ny":28,"refTime":"2022-09-19T21:00:00:Z","depth":"4","parameterNumber":2,"parameterNumberName":"U-component_of_CURRENTS"},"data":[0.012,0.0148,0.0184,0.0248,0.0301,0.036,0.0412,0.0465,0.0499,0.0581,0.062,0.0695,0.077,0.0755,0.0864,0.0884,0.0869,0.1024,0.1025,0.0994,0.099,0.0987,0.096,0,0,0,0,0,0.0144,0.0162,0.0208,0.0291,0.0345,0.0396,0.0468,0.0511,0.0592,0.0611,0.0673,0.071,0.0801,0.0825,0.0881,0.0905,0.095,0.097,0.094,0.0992,0.0988,0.0963,0,0,0,0,0,0,0.019,0.0199,0.026,0.0331,0.0391,0.0445,0.049,0.0548,0.0596,0.0702,0.069,0.0766,0.0818,0.0888,0.0897,0.0948,0.0949,0.0943,0.0942,0.0939,0.0913,0.0931,0.0955,0,0,0,0,0,0.0241,0.0272,0.0308,0.0391,0.0448,0.0499,0.057,0.0597,0.0678,0.0728,0.0764,0.0816,0.0862,0.0897,0.0951,0.0941,0.0959,0.097,0.0967,0.0933,0.0951,0.0951,0.0948,0.0972,0.0971,0.0971,0.0971,0,0.0295,0.0313,0.041,0.0447,0.0497,0.057,0.0605,0.0691,0.0713,0.0789,0.0787,0.0855,0.0881,0.0908,0.0924,0.0953,0.0937,0.0959,0.0923,0.0944,0.0946,0.0943,0.0941,0.0968,0.0968,0.0968,0.0968,0,0.0314,0.0378,0.0424,0.0518,0.0555,0.0591,0.0683,0.0703,0.0775,0.0804,0.0826,0.0874,0.0902,0.0925,0.0917,0.092,0.091,0.0911,0.089,0.0892,0.0935,0.0934,0.0962,0.0963,0.0964,0.0965,0.0966,0,0.0369,0.04,0.0495,0.0518,0.0569,0.0632,0.0679,0.072,0.0773,0.0796,0.0848,0.0853,0.0882,0.0889,0.0875,0.0888,0.0874,0.0876,0.0881,0.0835,0.0835,0.0848,0.0849,0.0835,0.0835,0.0834,0.0834,0,0.0378,0.0458,0.0499,0.0526,0.0605,0.0635,0.0678,0.0727,0.0752,0.0806,0.0837,0.0851,0.0874,0.0862,0.0862,0.0858,0.0857,0.0845,0.0868,0.0871,0.0846,0.0847,0.0833,0.0833,0.0833,0.0833,0.0833,0,0.0417,0.0459,0.0509,0.0578,0.0598,0.0633,0.0688,0.0717,0.0759,0.0791,0.0819,0.084,0.084,0.0835,0.0832,0.0835,0.0836,0.0825,0.0827,0.0863,0.0868,0.0885,0.0859,0.0858,0.0858,0.0858,0.0858,0,0.0419,0.0474,0.0508,0.0561,0.0597,0.0647,0.0668,0.071,0.0749,0.0787,0.0788,0.0816,0.0815,0.0833,0.0819,0.0813,0.0812,0.0801,0.0839,0.0841,0.0876,0.0857,0.0802,0.0856,0.0856,0.0856,0.0856,0,0.0415,0.0492,0.0501,0.0536,0.0605,0.0632,0.0662,0.0704,0.0735,0.0779,0.0808,0.0797,0.0824,0.0826,0.0825,0.0815,0.0811,0.0833,0.0833,0.0867,0.0826,0.0852,0.0856,0.0804,0.0803,0.0803,0.0855,0,0.0453,0.0487,0.0502,0.0558,0.0588,0.0626,0.0671,0.0706,0.0755,0.0787,0.0809,0.0817,0.0844,0.0831,0.0837,0.0822,0.0849,0.0838,0.087,0.0842,0.0869,0.087,0.0866,0.0866,0.0867,0.0867,0,0,0.0448,0.0477,0.0513,0.0545,0.0578,0.0638,0.0668,0.0695,0.0767,0.0786,0.0816,0.0848,0.0862,0.0852,0.0843,0.0845,0.0864,0.0887,0.085,0.0848,0.0847,0.0871,0.0871,0.0868,0.0868,0.0868,0.0868,0,0.0455,0.0486,0.0503,0.0537,0.0603,0.0632,0.0654,0.0719,0.0753,0.0794,0.0817,0.0833,0.0878,0.0874,0.0877,0.0853,0.0894,0.086,0.0864,0.0854,0.0851,0.0849,0.0873,0.0873,0.0869,0.0869,0.0869,0,0.0464,0.0498,0.0508,0.0557,0.0596,0.0627,0.0668,0.0718,0.0745,0.0792,0.0848,0.0862,0.0877,0.0888,0.0903,0.0919,0.0927,0.0926,0.0923,0.0936,0.0928,0.0924,0.0921,0.0964,0.0964,0.0965,0,0,0.0474,0.0492,0.0544,0.0563,0.0586,0.0644,0.0672,0.0715,0.0761,0.0788,0.0838,0.0873,0.0879,0.0909,0.092,0.0938,0.0953,0.0938,0.0933,0.093,0.094,0.0931,0.0927,0.0966,0.0966,0.0966,0,0,0.0481,0.0532,0.0558,0.058,0.0621,0.067,0.0695,0.0736,0.0783,0.0807,0.0853,0.0868,0.0896,0.0918,0.0929,0.0937,0.0954,0.0953,0.0935,0.093,0.0925,0.0935,0.0966,0,0,0,0,0,0.0515,0.052,0.0542,0.0553,0.0614,0.065,0.066,0.0722,0.0763,0.0779,0.0825,0.086,0.0923,0.0934,0.0944,0.0944,0.0982,0.0979,0.0977,0.0957,0.0951,0.0946,0,0,0,0,0,0,0.052,0.0531,0.0542,0.0588,0.0603,0.0649,0.0691,0.0707,0.0763,0.0774,0.0846,0.086,0.0885,0.0933,0.094,0.094,0.0964,0.0981,0.0979,0.0977,0.0955,0.095,0.0946,0,0,0,0,0,0.0524,0.0533,0.0617,0.0588,0.0602,0.0682,0.0693,0.0707,0.0757,0.0806,0.0823,0.0811,0.0882,0.0894,0.0938,0.0935,0.0959,0.0961,0.098,0.0978,0.0976,0.0952,0,0,0,0,0,0,0.0527,0.0536,0.0621,0.0628,0.061,0.0682,0.0695,0.0706,0.0788,0.0804,0.0769,0.0776,0.0879,0.0889,0.0898,0.0931,0.0955,0.0957,0.0959,0.0978,0.0977,0.0975,0,0,0,0,0,0,0.0533,0.0541,0.0624,0.0648,0.0658,0.0682,0.0694,0.0714,0.0788,0.0745,0.0754,0.0771,0.0879,0.0886,0.0893,0.0921,0.0951,0.0954,0.0956,0.0957,0.0977,0.0976,0,0,0,0,0,0,0.0537,0.0545,0.0646,0.0654,0.0662,0.0736,0.0702,0.0767,0.0793,0.074,0.08,0.0803,0.0875,0.0883,0.0889,0.0913,0.0919,0.0951,0.0953,0.0955,0.0955,0,0,0,0,0,0,0,0.0541,0.0477,0.0589,0.0658,0.0666,0.0689,0.0691,0.0692,0.0794,0.0796,0.0799,0.0802,0.0936,0.0939,0.0942,0.0906,0,0,0.0951,0.0952,0,0,0,0,0,0,0,0,0.0476,0.0477,0.0589,0.0591,0.0592,0.069,0.0691,0.0692,0.0794,0.0796,0.0798,0.0801,0.0937,0.0939,0.0942,0,0,0,0,0,0,0,0,0,0,0,0,0,0,0,0.0589,0.059,0,0.069,0.0691,0.0691,0.0794,0.0796,0.0798,0.08,0.0938,0.094,0.0942,0,0,0,0,0,0,0,0,0,0,0,0,0,0,0,0,0,0,0,0,0,0,0,0,0,0,0,0,0,0,0,0,0,0,0,0,0,0,0,0,0,0,0,0,0,0,0,0,0,0,0,0,0,0,0,0,0,0,0,0,0,0,0,0,0,0,0,0,0]}],[{"header":{"parameterUnit":"kt","parameterCategory":2,"dx":1,"dy":1,"la1":30.253999710083008,"la2":30.299108505249023,"lo1":-89.0895004272461,"lo2":-89.04439544677734,"nx":28,"ny":28,"refTime":"2022-09-19T21:00:00:Z","depth":"4","parameterNumber":3,"parameterNumberName":"V-component_of_CURRENTS"},"data":[-0.0365,-0.0363,-0.0348,-0.0343,-0.0342,-0.0341,-0.0337,-0.033,-0.0298,-0.0296,-0.033,-0.036,-0.0445,-0.0408,-0.0542,-0.0569,-0.0685,-0.0745,-0.0746,-0.0955,-0.0965,-0.0973,-0.0988,0,0,0,0,0,-0.0363,-0.0353,-0.0355,-0.0351,-0.0356,-0.0366,-0.0359,-0.0362,-0.0356,-0.0308,-0.0347,-0.0358,-0.045,-0.0501,-0.0548,-0.0635,-0.0799,-0.0696,-0.0872,-0.0961,-0.0972,-0.0982,0,0,0,0,0,0,-0.035,-0.035,-0.0351,-0.0363,-0.0375,-0.037,-0.0384,-0.0374,-0.0381,-0.0413,-0.0376,-0.0456,-0.0508,-0.06,-0.0636,-0.0701,-0.0759,-0.0809,-0.0827,-0.0839,-0.0822,-0.0771,-0.0607,0,0,0,0,0,-0.0334,-0.0346,-0.0358,-0.0363,-0.039,-0.0407,-0.0448,-0.0434,-0.0496,-0.0539,-0.0514,-0.0576,-0.0591,-0.0698,-0.0737,-0.0803,-0.101,-0.0965,-0.0974,-0.1079,-0.106,-0.1055,-0.1063,-0.1013,-0.1014,-0.1015,-0.1016,0,-0.0327,-0.0333,-0.0364,-0.0375,-0.0417,-0.0472,-0.0503,-0.0586,-0.0601,-0.0656,-0.0647,-0.0703,-0.0773,-0.077,-0.0896,-0.0972,-0.0985,-0.0992,-0.1104,-0.1078,-0.1069,-0.1075,-0.1079,-0.1025,-0.1024,-0.1023,-0.1023,0,-0.0324,-0.0345,-0.0369,-0.0428,-0.045,-0.0493,-0.0574,-0.061,-0.0704,-0.0739,-0.0777,-0.0885,-0.0922,-0.1013,-0.1068,-0.1108,-0.1122,-0.1095,-0.116,-0.115,-0.1094,-0.1096,-0.1039,-0.1036,-0.1033,-0.1031,-0.1029,0,-0.0336,-0.0365,-0.0409,-0.0425,-0.0464,-0.0539,-0.0604,-0.0684,-0.0773,-0.0802,-0.0953,-0.0977,-0.113,-0.1146,-0.1202,-0.119,-0.1221,-0.1211,-0.1195,-0.13,-0.1301,-0.1276,-0.1274,-0.13,-0.1301,-0.1301,-0.1301,0,-0.0349,-0.04,-0.0421,-0.0445,-0.0517,-0.0565,-0.0622,-0.0731,-0.0774,-0.0912,-0.0952,-0.1085,-0.1138,-0.1194,-0.1238,-0.1275,-0.1252,-0.1297,-0.122,-0.1213,-0.1278,-0.1275,-0.1302,-0.1302,-0.1302,-0.1302,-0.1303,0,-0.0388,-0.0403,-0.0436,-0.0496,-0.0517,-0.0562,-0.0659,-0.0717,-0.0833,-0.0908,-0.1025,-0.1105,-0.1196,-0.1233,-0.1295,-0.1305,-0.1311,-0.132,-0.1318,-0.1223,-0.1204,-0.1211,-0.1273,-0.1273,-0.1273,-0.1274,-0.1274,0,-0.0388,-0.0415,-0.0454,-0.0504,-0.0527,-0.0606,-0.0657,-0.0739,-0.0828,-0.0913,-0.1021,-0.1116,-0.1184,-0.1248,-0.1284,-0.1316,-0.1321,-0.1334,-0.1286,-0.1283,-0.1184,-0.1221,-0.1339,-0.1276,-0.1276,-0.1276,-0.1276,0,-0.0387,-0.0442,-0.0456,-0.048,-0.0563,-0.0586,-0.0663,-0.0731,-0.0786,-0.0913,-0.0981,-0.1118,-0.1184,-0.122,-0.1278,-0.1298,-0.132,-0.1301,-0.13,-0.1246,-0.1311,-0.1233,-0.1224,-0.1337,-0.1338,-0.1338,-0.1277,0,-0.0398,-0.0435,-0.0454,-0.0504,-0.054,-0.0582,-0.0642,-0.0713,-0.0799,-0.0848,-0.0978,-0.1063,-0.1152,-0.1199,-0.1222,-0.1285,-0.1266,-0.1269,-0.1216,-0.1275,-0.1242,-0.1241,-0.1239,-0.1238,-0.1238,-0.1237,0,0,-0.0393,-0.0416,-0.0454,-0.048,-0.051,-0.0577,-0.0605,-0.0654,-0.0752,-0.0797,-0.0843,-0.1008,-0.1061,-0.1137,-0.1182,-0.121,-0.1198,-0.1195,-0.1261,-0.1264,-0.1266,-0.1237,-0.1237,-0.1235,-0.1235,-0.1235,-0.1234,0,-0.0379,-0.0425,-0.0443,-0.0473,-0.0532,-0.0554,-0.0583,-0.0648,-0.0701,-0.0793,-0.0844,-0.0938,-0.1034,-0.1071,-0.1099,-0.1192,-0.1162,-0.123,-0.1249,-0.1254,-0.1258,-0.1261,-0.1234,-0.1234,-0.1232,-0.1233,-0.1233,0,-0.0373,-0.0397,-0.0412,-0.0454,-0.0488,-0.0515,-0.0542,-0.06,-0.064,-0.0684,-0.079,-0.0855,-0.0903,-0.0988,-0.1036,-0.1014,-0.111,-0.1109,-0.1115,-0.1095,-0.1096,-0.1102,-0.1108,-0.103,-0.1029,-0.1028,0,0,-0.0367,-0.0391,-0.0421,-0.0452,-0.0473,-0.0517,-0.0545,-0.0583,-0.064,-0.068,-0.0742,-0.0815,-0.0874,-0.0918,-0.0969,-0.1039,-0.1012,-0.1083,-0.1092,-0.11,-0.1085,-0.1089,-0.1096,-0.1025,-0.1025,-0.1025,0,0,-0.0359,-0.039,-0.0415,-0.0446,-0.0478,-0.0502,-0.0538,-0.0573,-0.065,-0.0689,-0.0725,-0.0744,-0.085,-0.0864,-0.0822,-0.096,-0.0922,-0.0932,-0.0944,-0.0956,-0.0965,-0.0933,-0.0804,0,0,0,0,0,-0.036,-0.0378,-0.04,-0.041,-0.046,-0.0484,-0.0493,-0.0544,-0.0588,-0.0614,-0.0691,-0.0692,-0.0855,-0.0818,-0.0829,-0.0879,-0.0987,-0.0994,-0.1,-0.1033,-0.1046,-0.1057,0,0,0,0,0,0,-0.0363,-0.0373,-0.04,-0.042,-0.0432,-0.0483,-0.0507,-0.052,-0.0586,-0.0597,-0.0677,-0.0691,-0.0705,-0.0812,-0.0822,-0.087,-0.08,-0.0989,-0.0995,-0.1001,-0.1038,-0.1048,-0.1057,0,0,0,0,0,-0.0366,-0.0374,-0.0447,-0.042,-0.0431,-0.0495,-0.0509,-0.0521,-0.0587,-0.062,-0.0637,-0.0633,-0.0702,-0.0717,-0.0818,-0.0865,-0.0793,-0.0797,-0.0993,-0.0998,-0.1002,-0.1043,0,0,0,0,0,0,-0.0369,-0.0381,-0.045,-0.0455,-0.0439,-0.0496,-0.0507,-0.052,-0.0609,-0.0625,-0.0572,-0.0578,-0.0699,-0.0712,-0.0723,-0.0864,-0.0787,-0.0791,-0.0794,-0.0997,-0.1,-0.1004,0,0,0,0,0,0,-0.0377,-0.0384,-0.0452,-0.0473,-0.048,-0.0496,-0.0506,-0.054,-0.0611,-0.0557,-0.0564,-0.0574,-0.07,-0.0708,-0.0717,-0.0766,-0.0783,-0.0787,-0.0789,-0.0791,-0.1,-0.1002,0,0,0,0,0,0,-0.0381,-0.0387,-0.0472,-0.0478,-0.0484,-0.0542,-0.0528,-0.059,-0.0595,-0.0553,-0.0601,-0.0603,-0.0696,-0.0706,-0.0712,-0.0756,-0.0763,-0.0783,-0.0785,-0.0787,-0.0788,0,0,0,0,0,0,0,-0.0384,-0.0332,-0.0423,-0.0482,-0.0488,-0.05,-0.0502,-0.0503,-0.0595,-0.0598,-0.06,-0.0602,-0.0761,-0.0765,-0.0769,-0.0749,0,0,-0.0782,-0.0784,0,0,0,0,0,0,0,0,-0.033,-0.0331,-0.0423,-0.0424,-0.0425,-0.0501,-0.0502,-0.0503,-0.0596,-0.0598,-0.0599,-0.0601,-0.0762,-0.0765,-0.0769,0,0,0,0,0,0,0,0,0,0,0,0,0,0,0,-0.0423,-0.0424,0,-0.0501,-0.0502,-0.0502,-0.0596,-0.0597,-0.0599,-0.0601,-0.0763,-0.0766,-0.0769,0,0,0,0,0,0,0,0,0,0,0,0,0,0,0,0,0,0,0,0,0,0,0,0,0,0,0,0,0,0,0,0,0,0,0,0,0,0,0,0,0,0,0,0,0,0,0,0,0,0,0,0,0,0,0,0,0,0,0,0,0,0,0,0,0,0,0,0,0]}]]]